Vorticity
nan nan nan nan nan nan nan nan nan nan nan nan nan nan nan nan nan nan nan nan nan nan nan nan nan nan nan nan nan nan nan nan nan nan nan nan nan nan nan nan nan nan nan nan
nan 8 3 5 14 13 7 6 2 9 14 9 10 7 10 5 4 8 4 8 9 7 16 12 8 9 7 5 5 8 8 7 4 8 8 9 11 8 10 9 9 8 7 nan
nan 7 9 5 13 16 8 4 3 7 15 7 5 10 8 7 8 4 5 8 8 5 4 11 12 9 6 6 7 7 8 6 6 7 8 7 7 8 10 10 9 10 11 nan
nan 6 11 14 8 8 12 18 8 9 5 7 1 8 10 13 8 6 5 5 9 6 4 4 10 12 9 4 6 8 7 6 7 6 7 8 7 7 7 9 9 10 9 nan
nan 9 8 12 9 10 13 12 7 11 3 7 4 3 17 14 7 10 7 5 6 9 7 6 6 11 12 7 6 6 6 6 7 8 7 7 7 8 11 14 11 6 8 nan
nan 4 14 10 6 6 8 8 13 8 5 6 17 13 11 13 11 8 10 9 7 6 5 10 6 10 13 11 6 7 6 6 8 9 8 7 6 7 10 11 8 10 9 nan
nan 11 5 7 8 11 11 9 11 5 11 10 13 11 2 5 24 19 11 8 8 4 7 8 5 4 18 17 8 6 6 7 9 8 7 7 6 8 8 6 8 9 9 nan
nan 18 19 8 9 8 9 13 4 6 9 8 5 11 10 8 16 20 22 15 10 9 4 7 9 7 8 15 11 6 6 7 8 8 8 8 7 6 9 9 11 8 9 nan
nan 16 20 9 9 5 6 12 11 9 8 9 7 11 2 8 13 21 26 13 9 6 7 6 6 9 13 7 9 14 7 6 7 8 9 9 9 6 8 9 11 9 9 nan
nan 12 6 10 12 10 10 1 9 12 12 11 12 5 -4 2 5 15 17 16 9 6 13 10 6 5 9 8 17 14 9 8 6 7 9 10 9 8 7 7 7 8 8 nan
nan 8 7 12 14 8 8 11 15 16 11 11 6 7 10 5 3 7 13 17 12 11 11 11 9 5 7 10 17 13 8 7 7 9 10 9 8 8 9 7 7 8 7 nan
nan 11 13 12 7 9 11 12 14 8 10 14 13 8 12 7 6 9 21 18 12 11 14 13 10 8 7 11 12 13 17 12 6 8 9 8 8 9 8 8 8 9 8 nan
nan 10 9 11 9 11 7 10 12 12 12 9 8 11 12 13 13 9 8 21 22 10 9 8 12 12 6 5 7 12 19 14 15 11 13 11 9 8 8 8 7 11 12 nan
nan 13 16 13 6 3 6 5 11 13 10 13 9 14 5 12 20 9 8 6 13 19 9 6 7 7 7 12 8 3 4 9 11 12 12 12 12 17 18 11 7 11 12 nan
nan 12 11 7 7 11 8 5 12 9 9 4 5 10 11 8 12 11 8 10 8 6 11 13 12 4 7 7 4 9 7 7 11 15 4 4 8 7 5 13 17 14 12 nan
nan 13 7 5 5 8 11 10 13 15 13 9 7 7 6 8 9 9 14 15 7 8 1 13 22 12 9 7 13 13 9 9 10 13 10 2 3 6 7 11 16 12 8 nan
nan 8 7 4 4 12 15 15 10 11 13 15 13 10 4 9 7 12 10 13 12 11 9 14 12 13 15 14 14 11 10 12 12 11 10 12 11 9 4 7 13 11 11 nan
nan 10 11 9 9 9 15 16 10 6 0 11 13 8 11 16 12 6 9 9 10 11 12 13 11 10 13 14 15 15 14 13 11 11 10 12 11 12 11 6 7 9 11 nan
nan 15 12 8 5 10 14 9 10 9 9 12 6 14 21 5 7 11 10 8 13 11 12 14 10 10 10 12 14 11 11 14 15 15 13 14 13 12 13 12 10 11 10 nan
nan 15 13 12 12 13 6 13 17 2 9 16 4 6 6 12 10 12 14 9 6 8 13 12 12 12 8 10 11 11 10 9 10 13 12 14 14 12 11 12 11 10 10 nan
nan 13 6 9 11 11 13 15 10 6 15 14 8 10 13 12 10 8 11 10 10 10 9 7 9 11 10 11 11 10 9 9 10 9 10 11 12 10 10 11 9 10 9 nan
nan 7 9 9 11 10 10 14 20 12 13 9 14 11 13 16 12 7 7 8 10 9 8 10 10 9 10 10 8 9 8 8 11 11 10 10 10 10 11 10 10 11 9 nan
nan 14 12 13 9 11 17 11 9 16 11 7 8 9 13 16 9 8 9 9 9 8 8 8 8 9 12 11 11 9 8 12 10 9 9 10 10 10 10 9 9 10 10 nan
nan 12 10 8 14 18 12 11 15 12 7 10 10 11 3 9 11 10 8 10 10 10 9 8 9 8 10 11 11 10 10 11 11 10 9 8 9 9 10 11 11 10 10 nan
nan 11 12 8 11 12 12 17 13 9 10 11 9 13 15 9 8 7 7 9 10 10 10 12 9 9 10 10 10 9 10 9 10 10 10 9 10 10 8 10 13 13 11 nan
nan nan nan nan nan nan nan nan nan nan nan nan nan nan nan nan nan nan nan nan nan nan nan nan nan nan nan nan nan nan nan nan nan nan nan nan nan nan nan nan nan nan nan nan
CAPE
0 0 0 0 106 267 23 27 164 15 25 500 262 70 44 30 48 102 94 190 104 45 58 0 0 44 55 122 13 792 662 840 927 868 638 350 100 883 641 0 0 397 846 0
0 0 0 0 0 234 67 74 20 80 254 318 255 171 51 18 3 69 21 177 164 129 54 28 0 19 32 17 28 753 1202 966 772 709 606 760 817 723 1116 985 1130 1061 1127 94
0 0 0 0 0 46 195 35 52 411 578 298 221 107 9 1 0 11 14 147 92 105 38 33 10 8 48 20 201 843 873 815 784 1411 398 568 337 56 777 1153 979 640 766 149
0 0 0 0 0 1 8 307 382 543 332 252 275 165 12 0 0 5 14 28 43 8 106 36 19 58 66 32 277 901 1115 1226 1324 1433 519 237 622 0 354 1174 1331 627 633 1002
0 0 0 0 0 0 0 113 153 483 484 296 389 173 346 0 0 4 0 0 27 45 84 3 21 45 144 93 282 901 967 987 1163 1515 935 388 939 852 461 1389 1084 808 1015 979
0 0 0 0 0 0 0 0 7 108 152 36 104 296 367 83 3 0 0 0 1 45 97 71 9 77 122 190 179 1060 721 879 1332 1216 936 874 911 569 528 1365 947 705 1027 889
0 0 0 0 0 0 0 0 0 0 0 121 128 162 209 182 221 22 0 10 0 27 48 37 35 50 176 428 472 967 979 1344 1113 1353 825 980 731 921 443 860 1101 978 657 222
0 0 0 0 0 0 0 0 0 0 8 78 115 66 186 334 421 148 34 9 0 2 62 40 41 33 63 207 632 693 1120 940 921 785 884 719 936 1138 386 784 594 82 99 82
0 0 0 0 0 0 0 0 0 0 17 2 108 459 233 19 113 131 214 14 0 41 48 59 0 214 1 145 248 743 1024 992 873 549 1227 1008 777 819 1057 599 748 137 148 385
0 0 0 2 0 0 0 0 0 8 37 67 181 99 12 50 5 90 190 0 0 4 96 130 58 244 221 10 253 805 1024 985 1125 895 1294 1063 1223 1023 1190 901 468 437 676 331
0 0 0 0 0 0 0 0 0 0 92 58 77 98 22 1 3 7 70 127 31 34 76 140 167 117 101 100 92 911 1080 1029 1060 921 965 773 903 1077 1060 1039 853 337 863 552
0 0 0 0 7 0 15 29 48 62 135 7 32 56 85 10 17 167 567 98 26 18 134 159 185 46 202 292 261 365 745 1151 992 1091 833 753 766 960 931 751 840 897 840 1275
0 0 0 2 53 9 28 32 41 49 74 2 0 0 11 3 33 763 696 248 48 202 318 220 219 190 194 289 220 49 207 739 834 886 744 999 709 680 754 723 815 946 977 919
0 0 51 46 45 23 15 0 0 4 127 79 101 162 144 21 543 545 487 361 2 103 256 162 120 47 28 66 1 8 0 27 17 274 153 118 101 327 730 594 611 993 842 631
0 0 89 6 20 49 12 0 0 0 0 82 60 66 95 2 667 623 632 393 9 0 9 148 89 37 36 114 8 7 0 0 0 239 167 33 0 0 0 14 603 875 564 571
1 139 91 92 76 49 4 4 14 6 0 161 119 131 86 232 558 536 500 309 19 0 17 162 317 122 165 117 18 30 0 6 73 111 13 0 0 0 0 0 292 456 381 393
6 9 40 71 44 5 0 103 24 2 65 118 133 194 157 0 337 275 468 406 356 314 220 306 165 127 227 324 177 35 73 176 258 156 35 0 0 0 0 165 103 163 294 293
0 37 118 80 82 84 29 89 0 1 8 21 38 114 282 300 427 295 380 316 209 173 95 235 483 705 916 777 448 303 289 345 359 160 81 40 7 48 49 107 114 184 29 1
18 83 103 250 154 131 198 109 19 21 43 0 31 119 634 470 429 424 355 369 341 233 173 170 328 403 358 139 72 139 127 320 471 444 223 202 122 76 118 150 185 60 2 2
18 107 135 187 240 153 264 139 109 8 27 12 114 0 0 0 391 522 513 477 381 280 349 372 468 264 118 130 77 46 71 98 159 184 57 36 21 15 11 1 1 1 1 2
15 171 3 26 77 315 316 22 45 146 380 92 2 0 0 1 0 360 260 395 361 273 144 126 163 194 113 46 38 31 20 29 41 63 46 40 28 7 2 1 0 1 0 0
14 122 17 26 238 231 349 626 494 231 0 1 105 179 160 66 138 547 434 508 319 215 157 139 123 106 79 13 9 3 22 17 18 17 14 8 3 8 3 0 0 0 0 0
83 121 14 0 0 470 247 1 355 18 56 110 76 0 149 704 752 539 396 351 252 230 154 110 84 31 49 0 0 0 1 8 13 11 0 0 0 0 0 0 0 0 0 0
117 160 12 53 393 289 429 218 52 109 26 3 9 0 137 524 473 403 418 406 261 234 178 158 37 5 2 18 1 0 0 0 0 3 5 0 0 0 0 0 0 0 0 0
119 60 2 0 162 85 285 174 54 13 287 0 343 267 662 713 453 322 296 281 180 152 177 82 12 10 8 2 2 1 0 0 0 0 0 0 0 0 0 0 0 0 0 0
84 141 95 315 371 192 151 68 5 0 0 354 464 613 578 773 563 419 221 207 168 128 193 157 42 17 1 4 3 7 1 0 0 0 0 0 0 0 0 0 0 0 0 0